,

(GMT )
Prerov

Weather History for LKPO - August, 2013

Change the Weather History Date:

Tuesday, August 6, 2013

  Actual Average Record
Temperature  
Mean Temperature 76 °F -  
Max Temperature 91 °F - - ()
Min Temperature 62 °F - - ()
Cooling Degree Days 12    
Growing Degree Days 26 (Base 50)    
Moisture  
Dew Point 64 °F    
Average Humidity 67    
Maximum Humidity 94    
Minimum Humidity 38    
Precipitation  
Precipitation 0.00 in - - ()
Sea Level Pressure  
Sea Level Pressure 30.01 in    
Wind  
Wind Speed 4 mph ()    
Max Wind Speed 8 mph    
Max Gust Speed -    
T = Trace of Precipitation, MM = Missing Value Source: Averaged Metar Reports

Daily Weather History Graph

Daily Weather History Graph

Search for Another Location

Airport or City:

Trip Planner

Search our weather history database for the weather conditions in past years. The results will help you decide how hot, cold, wet, or windy it might be!

Date:

Astronomy

Aug. 06, 2013 Rise Set
Actual Time 5:28 AM CEST 8:22 PM CEST
Civil Twilight 4:51 AM CEST 8:59 PM CEST
Nautical Twilight 4:03 AM CEST 9:47 PM CEST
Astronomical Twilight 3:05 AM CEST 10:45 PM CEST
Moon 5:07 AM CEST (8/6) 7:40 PM CEST (8/6)
Length of Visible Light 16h 08m
Length of Day
14h 54m
Waning Crescent, 0% of the Moon is Illuminated
Aug 6
Waning Crescent
Aug 6
New
Aug 14
First Quarter
Aug 21
Full
Aug 28
Last Quarter

Hourly Weather History & Observations

Time (CEST) Temp. Heat Index Dew Point Humidity Pressure Visibility Wind Dir Wind Speed Gust Speed Precip Events Conditions
12:00 AM 68.0 °F - 64.4 °F 88% 30.06 in - East 2.3 mph - N/A   Clear
1:00 AM 64.4 °F - 60.8 °F 88% 30.06 in - East 3.5 mph - N/A   Clear
2:00 AM 64.4 °F - 60.8 °F 88% 30.06 in - NE 3.5 mph - N/A   Clear
3:00 AM 62.6 °F - 60.8 °F 94% 30.06 in - NE 2.3 mph - N/A   Clear
4:00 AM 62.6 °F - 59.0 °F 88% 30.04 in - NNE 2.3 mph - N/A   Clear
5:00 AM 62.6 °F - 60.8 °F 94% 30.04 in - ENE 4.6 mph - N/A   Clear
6:00 AM 62.6 °F - 60.8 °F 94% 30.04 in - ENE 3.5 mph - N/A   Clear
7:00 AM 64.4 °F - 62.6 °F 94% 30.04 in - Calm Calm - N/A   Clear
8:00 AM 68.0 °F - 64.4 °F 88% 30.04 in - Variable 2.3 mph - N/A   Clear
9:00 AM 73.4 °F - 66.2 °F 78% 30.06 in - NW 3.5 mph - N/A   Clear
10:00 AM 78.8 °F - 66.2 °F 65% 30.04 in - Variable 2.3 mph - N/A   Clear
11:00 AM 84.2 °F 85.6 °F 64.4 °F 51% 30.04 in - South 5.8 mph - N/A   Clear
12:00 PM 86.0 °F 87.3 °F 64.4 °F 48% 30.04 in - SSW 6.9 mph - N/A   Clear
1:00 PM 87.8 °F 88.5 °F 62.6 °F 43% 30.04 in - South 6.9 mph - N/A   Clear
2:00 PM 89.6 °F 92.2 °F 66.2 °F 46% 30.01 in - South 6.9 mph - N/A   Clear
3:00 PM 89.6 °F 91.1 °F 64.4 °F 43% 29.98 in - SSW 8.1 mph - N/A   Clear
4:00 PM 91.4 °F 93.2 °F 64.4 °F 41% 29.98 in - South 8.1 mph - N/A   Clear
5:00 PM 91.4 °F 92.1 °F 62.6 °F 38% 29.95 in - South 8.1 mph - N/A   Clear
6:00 PM 91.4 °F 92.1 °F 62.6 °F 38% 29.95 in - South 6.9 mph - N/A   Clear
7:00 PM 91.4 °F 93.2 °F 64.4 °F 41% 29.95 in - South 5.8 mph - N/A   Clear
8:00 PM 86.0 °F 88.2 °F 66.2 °F 51% 29.92 in - SE 3.5 mph - N/A   Clear
9:00 PM 82.4 °F 83.9 °F 64.4 °F 54% 29.92 in - ESE 4.6 mph - N/A   Clear
10:00 PM 75.2 °F - 66.2 °F 73% 29.95 in - ENE 5.8 mph - N/A   Clear
11:00 PM 75.2 °F - 66.2 °F 73% 29.92 in - ENE 5.8 mph - N/A   Clear